| time (UTC) | temp C | wind direction | speed KPH | gust KPH | rain 1hr cm | rain 24hr cm | rain mn cm | humidity % | barometer mb |
| 20260506194939 | 17 | 87 | 4.8 | 6.4 | 0.00 | 0.15 | 0.15 | 68 | 1016.0 |
| 20260506194436 | 17 | 322 | 4.8 | 6.4 | 0.00 | 0.15 | 0.15 | 71 | 1015.8 |
| 20260506193933 | 16 | 95 | 3.2 | 3.2 | 0.00 | 0.15 | 0.15 | 67 | 1016.0 |
| 20260506193430 | 16 | 173 | 3.2 | 9.7 | 0.00 | 0.15 | 0.15 | 69 | 1016.0 |
| 20260506192926 | 16 | 133 | 3.2 | 6.4 | 0.00 | 0.15 | 0.15 | 70 | 1016.1 |
| 20260506192423 | 17 | 347 | 1.6 | 3.2 | 0.00 | 0.15 | 0.15 | 69 | 1016.2 |
| 20260506191920 | 16 | 48 | 4.8 | 6.4 | 0.00 | 0.15 | 0.15 | 67 | 1016.3 |
| 20260506191417 | 16 | 135 | 1.6 | 6.4 | 0.00 | 0.15 | 0.15 | 69 | 1016.4 |
| 20260506190914 | 16 | 157 | 4.8 | 4.8 | 0.00 | 0.15 | 0.15 | 69 | 1016.5 |
| 20260506190410 | 16 | 142 | 4.8 | 6.4 | 0.00 | 0.15 | 0.15 | 70 | 1016.3 |
| 20260506185907 | 16 | 152 | 3.2 | 6.4 | 0.00 | 0.15 | 0.15 | 72 | 1016.3 |
| 20260506185404 | 16 | 151 | 1.6 | 9.7 | 0.00 | 0.15 | 0.15 | 70 | 1016.2 |
| 20260506184901 | 16 | 300 | 4.8 | 4.8 | 0.00 | 0.15 | 0.15 | 70 | 1016.1 |
| 20260506184358 | 15 | 247 | 3.2 | 14.5 | 0.00 | 0.15 | 0.15 | 72 | 1015.7 |
| 20260506183855 | 15 | 296 | 9.7 | 14.5 | 0.00 | 0.15 | 0.15 | 72 | 1015.4 |
| 20260506183350 | 15 | 22 | 1.6 | 6.4 | 0.00 | 0.15 | 0.15 | 75 | 1016.0 |
| 20260506182848 | 15 | 346 | 3.2 | 9.7 | 0.00 | 0.15 | 0.15 | 73 | 1016.0 |
| 20260506182345 | 15 | 55 | 4.8 | 6.4 | 0.00 | 0.15 | 0.15 | 72 | 1016.2 |
| 20260506181842 | 15 | 314 | 8.0 | 11.3 | 0.00 | 0.15 | 0.15 | 76 | 1015.8 |
| 20260506181341 | 15 | 309 | 14.5 | 17.7 | 0.00 | 0.15 | 0.15 | 73 | 1016.1 |
| 20260506180837 | 15 | 8 | 3.2 | 11.3 | 0.00 | 0.15 | 0.15 | 74 | 1015.9 |
| 20260506180333 | 14 | 340 | 4.8 | 11.3 | 0.00 | 0.15 | 0.15 | 76 | 1016.1 |
| 20260506175829 | 14 | 341 | 4.8 | 6.4 | 0.00 | 0.15 | 0.15 | 77 | 1016.2 |
| 20260506175326 | 14 | 39 | 3.2 | 6.4 | 0.00 | 0.15 | 0.15 | 76 | 1016.2 |
| 20260506174824 | 15 | 304 | 6.4 | 9.7 | 0.00 | 0.15 | 0.15 | 76 | 1016.4 |
| 20260506174321 | 14 | 96 | 1.6 | 3.2 | 0.00 | 0.15 | 0.15 | 77 | 1016.6 |
| 20260506173819 | 13 | 37 | 3.2 | 6.4 | 0.00 | 0.15 | 0.15 | 80 | 1016.7 |
| 20260506173315 | 13 | 50 | 3.2 | 6.4 | 0.00 | 0.15 | 0.15 | 79 | 1016.4 |
| 20260506172812 | 13 | 228 | 1.6 | 9.7 | 0.00 | 0.15 | 0.15 | 81 | 1016.2 |
| 20260506172308 | 13 | 64 | 1.6 | 9.7 | 0.00 | 0.15 | 0.15 | 80 | 1016.1 |
| 20260506171806 | 12 | 316 | 1.6 | 4.8 | 0.00 | 0.15 | 0.15 | 82 | 1016.3 |
| 20260506171303 | 12 | 309 | 6.4 | 9.7 | 0.00 | 0.15 | 0.15 | 84 | 1016.3 |
| 20260506170801 | 12 | 314 | 1.6 | 4.8 | 0.00 | 0.15 | 0.15 | 85 | 1016.5 |
| 20260506170257 | 12 | 317 | 6.4 | 6.4 | 0.00 | 0.15 | 0.15 | 85 | 1016.3 |
| 20260506165756 | 11 | 329 | 3.2 | 4.8 | 0.00 | 0.15 | 0.15 | 86 | 1016.6 |
| 20260506165253 | 11 | 37 | 6.4 | 9.7 | 0.00 | 0.15 | 0.15 | 86 | 1016.5 |
| 20260506164750 | 11 | 308 | 1.6 | 9.7 | 0.00 | 0.15 | 0.15 | 87 | 1016.7 |
| 20260506164246 | 11 | 294 | 1.6 | 4.8 | 0.00 | 0.15 | 0.15 | 88 | 1016.5 |
| 20260506163743 | 11 | 351 | 0.0 | 4.8 | 0.00 | 0.15 | 0.15 | 89 | 1016.6 |
| 20260506163238 | 11 | 80 | 1.6 | 9.7 | 0.00 | 0.15 | 0.15 | 88 | 1016.5 |
| 20260506162734 | 11 | 4 | 1.6 | 9.7 | 0.00 | 0.15 | 0.15 | 89 | 1016.4 |
| 20260506162232 | 11 | 293 | 3.2 | 4.8 | 0.00 | 0.15 | 0.15 | 90 | 1016.5 |
| 20260506161729 | 11 | 351 | 9.7 | 12.9 | 0.00 | 0.15 | 0.15 | 90 | 1016.3 |
| 20260506161226 | 11 | 316 | 6.4 | 11.3 | 0.00 | 0.15 | 0.15 | 90 | 1015.9 |
| 20260506160724 | 11 | 302 | 11.3 | 16.1 | 0.00 | 0.15 | 0.15 | 89 | 1016.1 |
| 20260506160220 | 11 | 308 | 8.0 | 11.3 | 0.00 | 0.15 | 0.15 | 91 | 1016.0 |
| 20260506155719 | 11 | 339 | 1.6 | 11.3 | 0.00 | 0.15 | 0.15 | 91 | 1015.9 |
| 20260506155216 | 11 | 30 | 3.2 | 6.4 | 0.00 | 0.15 | 0.15 | 91 | 1016.0 |
| 20260506153317 | 10 | 4 | 3.2 | 6.4 | 0.00 | 0.15 | 0.15 | 93 | 1016.8 |
| 20260506152814 | 10 | 314 | 3.2 | 9.7 | 0.00 | 0.15 | 0.15 | 93 | 1016.6 |
| 20260506152312 | 10 | 86 | 3.2 | 9.7 | 0.13 | 0.15 | 0.15 | 93 | 1016.3 |
| 20260506151810 | 10 | 279 | 3.2 | 6.4 | 0.30 | 0.15 | 0.15 | 94 | 1016.2 |
| 20260506151307 | 10 | 307 | 1.6 | 11.3 | 0.30 | 0.13 | 0.13 | 93 | 1016.5 |
| 20260506150803 | 10 | 328 | 4.8 | 9.7 | 0.13 | 0.10 | 0.10 | 93 | 1016.9 |
| 20260506150304 | 10 | 331 | 1.6 | 6.4 | 0.18 | 0.08 | 0.08 | 92 | 1017.6 |
| 20260506145757 | 10 | 320 | 4.8 | 4.8 | 0.18 | 0.08 | 0.08 | 91 | 1018.1 |
| 20260506145254 | 10 | 313 | 6.4 | 6.4 | 0.13 | 0.05 | 0.05 | 90 | 1018.3 |
| 20260506144751 | 10 | 311 | 3.2 | 9.7 | 0.13 | 0.05 | 0.05 | 90 | 1018.6 |
| 20260506144248 | 10 | 311 | 1.6 | 6.4 | 0.00 | 0.03 | 0.03 | 90 | 1018.2 |
| 20260506143746 | 10 | 299 | 3.2 | 9.7 | 0.00 | 0.03 | 0.03 | 91 | 1017.1 |
| 20260506143243 | 10 | 307 | 6.4 | 6.4 | 0.00 | 0.03 | 0.03 | 91 | 1017.1 |
| 20260506142741 | 10 | 317 | 4.8 | 6.4 | 0.00 | 0.03 | 0.03 | 91 | 1016.7 |
| 20260506142239 | 10 | 311 | 6.4 | 12.9 | 0.00 | 0.03 | 0.03 | 91 | 1016.4 |
| 20260506141738 | 10 | 325 | 4.8 | 6.4 | 0.18 | 0.03 | 0.03 | 91 | 1016.0 |
| 20260506141235 | 10 | 329 | 6.4 | 6.4 | 0.18 | 0.03 | 0.03 | 90 | 1016.7 |
| 20260506140732 | 10 | 9 | 1.6 | 4.8 | 0.00 | 0.00 | 0.00 | 90 | 1015.8 |
| 20260506140229 | 10 | 280 | 3.2 | 9.7 | 0.00 | 0.00 | 0.00 | 89 | 1016.5 |
| 20260506135725 | 10 | 43 | 3.2 | 6.4 | 0.00 | 0.00 | 0.00 | 89 | 1017.0 |
| 20260506135222 | 10 | 26 | 4.8 | 12.9 | 0.00 | 0.00 | 0.00 | 87 | 1017.0 |
| 20260506134719 | 10 | 293 | 8.0 | 12.9 | 0.00 | 0.00 | 0.00 | 88 | 1016.8 |
| 20260506134215 | 10 | 0 | 3.2 | 9.7 | 0.00 | 0.00 | 0.00 | 87 | 1016.8 |
| 20260506133713 | 10 | 40 | 3.2 | 4.8 | 0.00 | 0.00 | 0.00 | 88 | 1017.2 |
| 20260506133209 | 10 | 273 | 6.4 | 12.9 | 0.00 | 0.00 | 0.00 | 88 | 1016.5 |
| 20260506132706 | 10 | 63 | 3.2 | 6.4 | 0.00 | 0.00 | 0.00 | 88 | 1016.0 |
| 20260506132203 | 10 | 322 | 3.2 | 11.3 | 0.00 | 0.00 | 0.00 | 88 | 1015.8 |
| 20260506131701 | 10 | 322 | 3.2 | 9.7 | 0.00 | 0.00 | 0.00 | 88 | 1015.4 |
| 20260506131156 | 10 | 68 | 4.8 | 11.3 | 0.00 | 0.00 | 0.00 | 89 | 1015.6 |
| 20260506130654 | 10 | 323 | 9.7 | 16.1 | 0.00 | 0.00 | 0.00 | 89 | 1015.9 |
| 20260506130151 | 10 | 66 | 1.6 | 6.4 | 0.00 | 0.00 | 0.00 | 90 | 1015.9 |
| 20260506125649 | 10 | 314 | 4.8 | 11.3 | 0.00 | 0.00 | 0.00 | 89 | 1015.7 |
| 20260506125147 | 10 | 271 | 1.6 | 6.4 | 0.00 | 0.00 | 0.00 | 89 | 1015.2 |
| 20260506124645 | 10 | 326 | 8.0 | 12.9 | 0.00 | 0.00 | 0.00 | 89 | 1015.2 |
| 20260506124142 | 10 | 311 | 6.4 | 11.3 | 0.00 | 0.00 | 0.00 | 88 | 1015.0 |
| 20260506123639 | 10 | 25 | 3.2 | 9.7 | 0.00 | 0.00 | 0.00 | 88 | 1015.0 |
| 20260506123138 | 10 | 320 | 4.8 | 9.7 | 0.00 | 0.00 | 0.00 | 88 | 1015.1 |
| 20260506122634 | 10 | 58 | 3.2 | 11.3 | 0.00 | 0.00 | 0.00 | 87 | 1015.1 |
| 20260506122132 | 10 | 301 | 4.8 | 9.7 | 0.00 | 0.00 | 0.00 | 87 | 1015.3 |
| 20260506121630 | 10 | 305 | 4.8 | 9.7 | 0.00 | 0.00 | 0.00 | 87 | 1015.0 |
| 20260506121126 | 10 | 321 | 11.3 | 16.1 | 0.00 | 0.00 | 0.00 | 87 | 1014.9 |
| 20260506120624 | 10 | 299 | 4.8 | 12.9 | 0.00 | 0.00 | 0.00 | 88 | 1014.8 |
| 20260506120121 | 10 | 317 | 4.8 | 16.1 | 0.00 | 0.00 | 0.00 | 87 | 1014.7 |
| 20260506115620 | 10 | 307 | 8.0 | 11.3 | 0.00 | 0.00 | 0.00 | 86 | 1014.9 |
| 20260506115117 | 10 | 329 | 9.7 | 12.9 | 0.00 | 0.00 | 0.00 | 86 | 1015.0 |
| 20260506114614 | 11 | 309 | 9.7 | 16.1 | 0.00 | 0.00 | 0.00 | 86 | 1014.9 |
| 20260506114112 | 11 | 326 | 14.5 | 22.5 | 0.00 | 0.00 | 0.00 | 85 | 1014.9 |
| 20260506113610 | 11 | 316 | 14.5 | 17.7 | 0.00 | 0.00 | 0.00 | 84 | 1014.6 |
| 20260506113107 | 11 | 298 | 8.0 | 14.5 | 0.00 | 0.00 | 0.00 | 84 | 1014.5 |
| 20260506112603 | 11 | 317 | 9.7 | 22.5 | 0.00 | 0.00 | 0.00 | 82 | 1014.2 |
| 20260506112101 | 11 | 312 | 11.3 | 14.5 | 0.00 | 0.00 | 0.00 | 81 | 1014.4 |
| 20260506111559 | 11 | 325 | 9.7 | 14.5 | 0.00 | 0.00 | 0.00 | 81 | 1013.9 |
| 20260506111056 | 11 | 348 | 9.7 | 14.5 | 0.00 | 0.00 | 0.00 | 81 | 1013.9 |
| 20260506110553 | 11 | 305 | 3.2 | 12.9 | 0.00 | 0.00 | 0.00 | 82 | 1013.8 |
| 20260506110051 | 12 | 312 | 11.3 | 16.1 | 0.00 | 0.00 | 0.00 | 81 | 1013.8 |
| 20260506105546 | 11 | 336 | 3.2 | 11.3 | 0.00 | 0.00 | 0.00 | 81 | 1013.6 |
| 20260506105044 | 12 | 309 | 3.2 | 16.1 | 0.00 | 0.00 | 0.00 | 81 | 1013.5 |
| 20260506104542 | 12 | 310 | 8.0 | 14.5 | 0.00 | 0.00 | 0.00 | 80 | 1013.8 |
| 20260506104039 | 12 | 324 | 3.2 | 16.1 | 0.00 | 0.00 | 0.00 | 80 | 1013.5 |
| 20260506103537 | 12 | 316 | 4.8 | 14.5 | 0.00 | 0.00 | 0.00 | 80 | 1013.5 |
| 20260506103033 | 12 | 290 | 8.0 | 20.9 | 0.00 | 0.00 | 0.00 | 80 | 1013.5 |
| 20260506102532 | 12 | 29 | 9.7 | 17.7 | 0.00 | 0.00 | 0.00 | 80 | 1013.4 |
| 20260506102029 | 12 | 316 | 9.7 | 14.5 | 0.00 | 0.00 | 0.00 | 80 | 1013.4 |
| 20260506101525 | 12 | 323 | 9.7 | 17.7 | 0.00 | 0.00 | 0.00 | 79 | 1013.3 |
| 20260506101022 | 12 | 307 | 9.7 | 16.1 | 0.00 | 0.00 | 0.00 | 79 | 1013.1 |
| 20260506100521 | 13 | 312 | 11.3 | 12.9 | 0.00 | 0.00 | 0.00 | 79 | 1013.0 |
| 20260506100019 | 13 | 345 | 9.7 | 11.3 | 0.00 | 0.00 | 0.00 | 80 | 1012.9 |
| 20260506095517 | 13 | 331 | 6.4 | 6.4 | 0.00 | 0.00 | 0.00 | 80 | 1012.8 |
| 20260506095012 | 13 | 305 | 6.4 | 9.7 | 0.00 | 0.00 | 0.00 | 80 | 1012.8 |
| 20260506094511 | 13 | 316 | 3.2 | 4.8 | 0.00 | 0.00 | 0.00 | 80 | 1012.7 |
| 20260506094009 | 13 | 297 | 3.2 | 6.4 | 0.00 | 0.00 | 0.00 | 79 | 1012.6 |
| 20260506093507 | 13 | 329 | 4.8 | 6.4 | 0.00 | 0.00 | 0.00 | 80 | 1012.6 |
| 20260506093004 | 13 | 290 | 4.8 | 9.7 | 0.00 | 0.00 | 0.00 | 79 | 1012.3 |
| 20260506092502 | 13 | 319 | 6.4 | 9.7 | 0.00 | 0.00 | 0.00 | 78 | 1012.6 |
| 20260506091958 | 13 | 316 | 9.7 | 14.5 | 0.00 | 0.00 | 0.00 | 78 | 1012.5 |
| 20260506091456 | 13 | 298 | 4.8 | 9.7 | 0.00 | 0.00 | 0.00 | 79 | 1012.4 |
| 20260506090953 | 13 | 325 | 3.2 | 4.8 | 0.00 | 0.00 | 0.00 | 79 | 1012.5 |
| 20260506090451 | 13 | 359 | 1.6 | 11.3 | 0.00 | 0.00 | 0.00 | 79 | 1012.2 |
| 20260506085947 | 13 | 320 | 3.2 | 9.7 | 0.00 | 0.00 | 0.00 | 79 | 1012.4 |
| 20260506085444 | 13 | 67 | 3.2 | 6.4 | 0.00 | 0.00 | 0.00 | 79 | 1012.4 |
| 20260506084940 | 13 | 304 | 3.2 | 4.8 | 0.00 | 0.00 | 0.00 | 79 | 1012.4 |
| 20260506084437 | 13 | 217 | 6.4 | 11.3 | 0.00 | 0.00 | 0.00 | 79 | 1012.3 |
| 20260506083933 | 13 | 329 | 4.8 | 9.7 | 0.00 | 0.00 | 0.00 | 79 | 1011.9 |
| 20260506083431 | 13 | 340 | 4.8 | 11.3 | 0.00 | 0.00 | 0.00 | 79 | 1012.1 |
| 20260506082928 | 13 | 293 | 3.2 | 6.4 | 0.00 | 0.00 | 0.00 | 79 | 1012.2 |
| 20260506082425 | 13 | 299 | 6.4 | 9.7 | 0.00 | 0.00 | 0.00 | 79 | 1012.1 |
| 20260506081920 | 13 | 319 | 3.2 | 6.4 | 0.00 | 0.00 | 0.00 | 79 | 1012.0 |
| 20260506081419 | 13 | 10 | 4.8 | 9.7 | 0.00 | 0.00 | 0.00 | 80 | 1012.0 |
| 20260506080916 | 13 | 7 | 3.2 | 6.4 | 0.00 | 0.00 | 0.00 | 80 | 1012.3 |
| 20260506080413 | 13 | 305 | 8.0 | 11.3 | 0.00 | 0.00 | 0.00 | 80 | 1011.9 |
| 20260506073357 | 13 | 313 | 1.6 | 6.4 | 0.00 | 0.00 | 0.00 | 81 | 1012.4 |
| 20260506072853 | 13 | 308 | 4.8 | 6.4 | 0.00 | 0.00 | 0.00 | 83 | 1012.2 |
| 20260506072351 | 13 | 41 | 0.0 | 1.6 | 0.00 | 0.00 | 0.00 | 82 | 1012.1 |
| 20260506071848 | 13 | 302 | 3.2 | 6.4 | 0.00 | 0.00 | 0.00 | 82 | 1012.0 |
| 20260506071347 | 13 | 333 | 0.0 | 3.2 | 0.00 | 0.00 | 0.00 | 83 | 1011.8 |
| 20260506070843 | 13 | 21 | 0.0 | 4.8 | 0.00 | 0.00 | 0.00 | 83 | 1011.9 |
| 20260506070340 | 13 | 79 | 3.2 | 3.2 | 0.00 | 0.00 | 0.00 | 83 | 1011.6 |
| 20260506062318 | 14 | 335 | 4.8 | 6.4 | 0.00 | 0.00 | 0.00 | 82 | 1011.5 |
| 20260506061813 | 14 | 91 | 3.2 | 4.8 | 0.00 | 0.00 | 0.00 | 82 | 1011.6 |
| 20260506061310 | 14 | 84 | 1.6 | 4.8 | 0.00 | 0.00 | 0.00 | 81 | 1011.6 |
| 20260506060809 | 14 | 317 | 0.0 | 3.2 | 0.00 | 0.00 | 0.00 | 82 | 1011.7 |
| 20260506060307 | 14 | 308 | 1.6 | 11.3 | 0.00 | 0.00 | 0.00 | 82 | 1011.5 |
| 20260506051238 | 15 | 61 | 3.2 | 4.8 | 0.00 | 0.00 | 0.00 | 81 | 1011.6 |
| 20260506050736 | 15 | 307 | 8.0 | 11.3 | 0.00 | 0.00 | 0.00 | 81 | 1011.6 |
| 20260506050233 | 15 | 332 | 3.2 | 12.9 | 0.00 | 0.00 | 0.00 | 81 | 1011.6 |
| 20260506044724 | 15 | 327 | 11.3 | 16.1 | 0.00 | 0.00 | 0.00 | 80 | 1011.7 |
| 20260506044221 | 15 | 278 | 6.4 | 12.9 | 0.00 | 0.00 | 0.00 | 80 | 1011.5 |
| 20260506043718 | 15 | 330 | 3.2 | 9.7 | 0.00 | 0.00 | 0.00 | 80 | 1011.5 |
| 20260506043216 | 15 | 303 | 8.0 | 12.9 | 0.00 | 0.00 | 0.00 | 80 | 1011.4 |
| 20260506042714 | 15 | 330 | 4.8 | 11.3 | 0.00 | 0.00 | 0.00 | 80 | 1011.4 |
| 20260506042212 | 16 | 356 | 3.2 | 16.1 | 0.00 | 0.00 | 0.00 | 79 | 1011.4 |
| 20260506041711 | 16 | 329 | 8.0 | 12.9 | 0.00 | 0.00 | 0.00 | 79 | 1011.4 |
| 20260506041207 | 16 | 308 | 6.4 | 6.4 | 0.00 | 0.00 | 0.00 | 79 | 1011.4 |
| 20260506040705 | 16 | 324 | 9.7 | 12.9 | 0.00 | 0.00 | 0.00 | 79 | 1011.3 |
| 20260506040201 | 16 | 321 | 4.8 | 14.5 | 0.00 | 0.00 | 0.00 | 78 | 1011.1 |
| 20260506035658 | 16 | 329 | 8.0 | 14.5 | 0.00 | 0.00 | 0.00 | 78 | 1011.6 |
| 20260506035155 | 16 | 330 | 6.4 | 20.9 | 0.00 | 0.00 | 0.00 | 78 | 1011.4 |
| 20260506034652 | 16 | 303 | 8.0 | 20.9 | 0.00 | 0.00 | 0.00 | 77 | 1011.4 |
| 20260506034149 | 16 | 307 | 9.7 | 12.9 | 0.00 | 0.00 | 0.00 | 78 | 1011.4 |
| 20260506033646 | 16 | 317 | 9.7 | 14.5 | 0.00 | 0.00 | 0.00 | 77 | 1011.0 |
| 20260506033143 | 16 | 332 | 6.4 | 16.1 | 0.00 | 0.00 | 0.00 | 77 | 1011.1 |
| 20260506032640 | 17 | 310 | 3.2 | 11.3 | 0.00 | 0.00 | 0.00 | 77 | 1010.8 |
| 20260506032137 | 17 | 328 | 9.7 | 12.9 | 0.00 | 0.00 | 0.00 | 77 | 1010.7 |
| 20260506031634 | 17 | 313 | 6.4 | 11.3 | 0.00 | 0.00 | 0.00 | 77 | 1010.6 |
| 20260506031131 | 17 | 301 | 6.4 | 11.3 | 0.00 | 0.00 | 0.00 | 77 | 1010.4 |
| 20260506030630 | 17 | 311 | 8.0 | 12.9 | 0.00 | 0.00 | 0.00 | 77 | 1010.4 |
| 20260506030127 | 17 | 307 | 11.3 | 17.7 | 0.00 | 0.00 | 0.00 | 77 | 1010.4 |
| 20260506025623 | 17 | 278 | 3.2 | 9.7 | 0.00 | 0.00 | 0.00 | 77 | 1009.9 |
| 20260506025119 | 17 | 304 | 6.4 | 9.7 | 0.00 | 0.00 | 0.00 | 77 | 1009.9 |
| 20260506024617 | 17 | 0 | 8.0 | 14.5 | 0.00 | 0.00 | 0.00 | 77 | 1009.9 |
| 20260506024113 | 17 | 355 | 3.2 | 11.3 | 0.00 | 0.00 | 0.00 | 76 | 1009.9 |
| 20260506023609 | 17 | 314 | 8.0 | 14.5 | 0.00 | 0.00 | 0.00 | 76 | 1009.9 |
| 20260506023107 | 18 | 327 | 6.4 | 9.7 | 0.00 | 0.00 | 0.00 | 76 | 1009.6 |
| 20260506022604 | 18 | 329 | 4.8 | 9.7 | 0.00 | 0.00 | 0.00 | 76 | 1009.6 |
| 20260506022101 | 18 | 73 | 8.0 | 11.3 | 0.00 | 0.00 | 0.00 | 75 | 1009.4 |
| 20260506021559 | 18 | 7 | 6.4 | 9.7 | 0.00 | 0.00 | 0.00 | 76 | 1009.6 |
| 20260506021056 | 18 | 306 | 3.2 | 6.4 | 0.00 | 0.00 | 0.00 | 77 | 1009.6 |
| 20260506020553 | 18 | 306 | 3.2 | 9.7 | 0.00 | 0.00 | 0.00 | 77 | 1009.1 |
| 20260506020050 | 18 | 307 | 1.6 | 1.6 | 0.00 | 0.00 | 0.00 | 77 | 1009.2 |
| 20260506015548 | 18 | 296 | 1.6 | 4.8 | 0.00 | 0.00 | 0.00 | 76 | 1009.2 |
| 20260506015045 | 18 | 11 | 0.0 | 4.8 | 0.00 | 0.00 | 0.00 | 75 | 1009.2 |
| 20260506014542 | 18 | 311 | 4.8 | 9.7 | 0.00 | 0.00 | 0.00 | 75 | 1009.1 |
| 20260506014038 | 18 | 294 | 4.8 | 9.7 | 0.00 | 0.00 | 0.00 | 75 | 1008.6 |
| 20260506013536 | 18 | 71 | 3.2 | 9.7 | 0.00 | 0.00 | 0.00 | 75 | 1008.6 |
| 20260506013032 | 18 | 59 | 3.2 | 9.7 | 0.00 | 0.00 | 0.00 | 73 | 1008.3 |
| 20260506012529 | 18 | 355 | 4.8 | 6.4 | 0.00 | 0.00 | 0.00 | 73 | 1008.1 |
| 20260506012026 | 18 | 349 | 6.4 | 9.7 | 0.00 | 0.00 | 0.00 | 73 | 1008.2 |
| 20260506011524 | 19 | 307 | 9.7 | 12.9 | 0.00 | 0.00 | 0.00 | 72 | 1008.0 |
| 20260506011019 | 19 | 319 | 8.0 | 11.3 | 0.00 | 0.00 | 0.00 | 73 | 1008.0 |
| 20260506010519 | 19 | 327 | 8.0 | 9.7 | 0.00 | 0.00 | 0.00 | 73 | 1007.5 |
| 20260506010015 | 19 | 323 | 9.7 | 12.9 | 0.00 | 0.00 | 0.00 | 72 | 1007.7 |
| 20260506005512 | 20 | 266 | 8.0 | 12.9 | 0.00 | 0.00 | 0.00 | 72 | 1007.5 |
| 20260506005008 | 20 | 305 | 9.7 | 14.5 | 0.00 | 0.00 | 0.00 | 72 | 1007.2 |
| 20260506004506 | 20 | 321 | 11.3 | 22.5 | 0.00 | 0.00 | 0.00 | 71 | 1007.0 |
| 20260506004002 | 21 | 301 | 9.7 | 16.1 | 0.00 | 0.00 | 0.00 | 71 | 1007.3 |
| 20260506003458 | 21 | 294 | 8.0 | 14.5 | 0.00 | 0.00 | 0.00 | 71 | 1007.6 |
| 20260506002954 | 21 | 312 | 8.0 | 16.1 | 0.00 | 0.00 | 0.00 | 70 | 1007.2 |
| 20260506002451 | 21 | 51 | 6.4 | 11.3 | 0.00 | 0.00 | 0.00 | 70 | 1007.2 |
| 20260506001946 | 21 | 324 | 3.2 | 6.4 | 0.00 | 0.00 | 0.00 | 70 | 1006.5 |
| 20260506001443 | 21 | 309 | 9.7 | 14.5 | 0.00 | 0.00 | 0.00 | 70 | 1006.7 |
| 20260506000940 | 21 | 333 | 4.8 | 12.9 | 0.00 | 0.00 | 0.00 | 71 | 1006.8 |
| 20260506000438 | 21 | 307 | 4.8 | 11.3 | 0.00 | 0.00 | 0.00 | 69 | 1007.1 |
| 20260505235935 | 22 | 313 | 12.9 | 16.1 | 0.00 | 0.00 | 0.00 | 69 | 1006.8 |
| 20260505235433 | 22 | 347 | 11.3 | 16.1 | 0.00 | 0.00 | 0.00 | 68 | 1006.8 |
| 20260505234929 | 22 | 26 | 6.4 | 11.3 | 0.00 | 0.00 | 0.00 | 69 | 1006.8 |
| 20260505234427 | 22 | 300 | 6.4 | 11.3 | 0.00 | 0.00 | 0.00 | 68 | 1007.0 |
| 20260505233923 | 22 | 317 | 14.5 | 17.7 | 0.00 | 0.00 | 0.00 | 67 | 1007.1 |
| 20260505233421 | 22 | 338 | 8.0 | 17.7 | 0.00 | 0.00 | 0.00 | 66 | 1007.0 |
| 20260505232918 | 23 | 329 | 4.8 | 12.9 | 0.00 | 0.00 | 0.00 | 66 | 1007.0 |
| 20260505232416 | 23 | 327 | 9.7 | 16.1 | 0.00 | 0.00 | 0.00 | 65 | 1006.5 |
| 20260505231912 | 23 | 335 | 8.0 | 11.3 | 0.00 | 0.00 | 0.00 | 65 | 1006.7 |
| 20260505231410 | 23 | 327 | 6.4 | 11.3 | 0.00 | 0.00 | 0.00 | 65 | 1006.6 |
| 20260505230908 | 23 | 289 | 9.7 | 12.9 | 0.00 | 0.00 | 0.00 | 64 | 1006.6 |
| 20260505230406 | 23 | 333 | 4.8 | 12.9 | 0.00 | 0.00 | 0.00 | 64 | 1006.7 |
| 20260505225902 | 23 | 339 | 8.0 | 14.5 | 0.00 | 0.00 | 0.00 | 64 | 1006.5 |
| 20260505225359 | 24 | 1 | 6.4 | 16.1 | 0.00 | 0.00 | 0.00 | 63 | 1006.5 |
| 20260505224854 | 25 | 1 | 6.4 | 20.9 | 0.00 | 0.00 | 0.00 | 62 | 1006.4 |
| 20260505224352 | 25 | 335 | 11.3 | 20.9 | 0.00 | 0.00 | 0.00 | 62 | 1006.6 |
| 20260505223849 | 25 | 330 | 12.9 | 20.9 | 0.00 | 0.00 | 0.00 | 61 | 1006.5 |
| 20260505223346 | 25 | 296 | 9.7 | 14.5 | 0.00 | 0.00 | 0.00 | 62 | 1006.3 |
| 20260505222842 | 25 | 356 | 9.7 | 20.9 | 0.00 | 0.00 | 0.00 | 60 | 1006.1 |
| 20260505222338 | 26 | 324 | 9.7 | 14.5 | 0.00 | 0.00 | 0.00 | 61 | 1006.1 |
| 20260505221835 | 25 | 335 | 11.3 | 16.1 | 0.00 | 0.00 | 0.00 | 62 | 1006.2 |
| 20260505221332 | 26 | 321 | 11.3 | 14.5 | 0.00 | 0.00 | 0.00 | 63 | 1006.1 |
| 20260505220829 | 26 | 332 | 9.7 | 16.1 | 0.00 | 0.00 | 0.00 | 63 | 1006.0 |
| 20260505220326 | 26 | 345 | 12.9 | 16.1 | 0.00 | 0.00 | 0.00 | 61 | 1005.9 |
| 20260505215824 | 26 | 299 | 9.7 | 17.7 | 0.00 | 0.00 | 0.00 | 62 | 1005.9 |
| 20260505215322 | 27 | 327 | 16.1 | 17.7 | 0.00 | 0.00 | 0.00 | 59 | 1005.8 |
| 20260505214819 | 27 | 318 | 9.7 | 20.9 | 0.00 | 0.00 | 0.00 | 57 | 1006.0 |
| 20260505214317 | 27 | 304 | 12.9 | 22.5 | 0.00 | 0.00 | 0.00 | 56 | 1005.7 |
| 20260505213813 | 27 | 333 | 9.7 | 16.1 | 0.00 | 0.00 | 0.00 | 55 | 1005.6 |
| 20260505213312 | 28 | 284 | 4.8 | 12.9 | 0.00 | 0.00 | 0.00 | 51 | 1005.8 |
| 20260505212807 | 27 | 303 | 6.4 | 12.9 | 0.00 | 0.00 | 0.00 | 49 | 1006.0 |
| 20260505212306 | 27 | 309 | 8.0 | 20.9 | 0.00 | 0.00 | 0.00 | 49 | 1005.9 |
| 20260505211800 | 28 | 309 | 8.0 | 12.9 | 0.00 | 0.00 | 0.00 | 49 | 1005.9 |
| 20260505211259 | 28 | 317 | 6.4 | 9.7 | 0.00 | 0.00 | 0.00 | 50 | 1005.7 |
| 20260505210754 | 28 | 308 | 8.0 | 16.1 | 0.00 | 0.00 | 0.00 | 49 | 1005.8 |
| 20260505210252 | 28 | 0 | 3.2 | 12.9 | 0.00 | 0.00 | 0.00 | 46 | 1005.9 |
| 20260505205749 | 28 | 291 | 4.8 | 16.1 | 0.00 | 0.00 | 0.00 | 45 | 1005.9 |
| 20260505205247 | 29 | 318 | 11.3 | 22.5 | 0.00 | 0.00 | 0.00 | 46 | 1005.9 |
| 20260505204743 | 29 | 307 | 8.0 | 20.9 | 0.00 | 0.00 | 0.00 | 45 | 1005.7 |
| 20260505204242 | 29 | 308 | 16.1 | 27.4 | 0.00 | 0.00 | 0.00 | 45 | 1005.7 |
| 20260505203738 | 30 | 323 | 9.7 | 14.5 | 0.00 | 0.00 | 0.00 | 47 | 1006.0 |
| 20260505203235 | 31 | 313 | 14.5 | 17.7 | 0.00 | 0.00 | 0.00 | 43 | 1005.8 |
| 20260505202731 | 32 | 311 | 9.7 | 12.9 | 0.00 | 0.00 | 0.00 | 47 | 1005.8 |
| 20260505202227 | 32 | 256 | 4.8 | 9.7 | 0.00 | 0.00 | 0.00 | 45 | 1005.5 |
| 20260505201724 | 31 | 241 | 4.8 | 12.9 | 0.00 | 0.00 | 0.00 | 47 | 1005.9 |
| 20260505201222 | 32 | 236 | 1.6 | 4.8 | 0.00 | 0.00 | 0.00 | 48 | 1005.7 |
| 20260505200719 | 31 | 247 | 6.4 | 11.3 | 0.00 | 0.00 | 0.00 | 46 | 1005.8 |
| 20260505200216 | 31 | 253 | 11.3 | 16.1 | 0.00 | 0.00 | 0.00 | 49 | 1005.9 |
| 20260505195712 | 31 | 242 | 3.2 | 11.3 | 0.00 | 0.00 | 0.00 | 56 | 1006.0 |